Home > Weather > Olympia > Past weeks

Flag for USA Past Weather in Olympia, Washington, USA — Yesterday and Last 2 Weeks

Now
62 °F

Clear.


Feels Like: 62 °F
Forecast: 53 / 89 °F
Wind: No wind

Location: Olympia Airport

Current Time: Aug 25, 2016 at 1:14:25 AM

Latest Report: Aug 24, 2016 at 11:54 PM


Visibility: 10 mi

Pressure: 30.12 "Hg

Humidity: 62%

Dew Point: 49 °F

Location of OlympiaLocation

Past Weather in Olympia — Graph

°F

Olympia Temperature Yesterday

Maximum temperature yesterday: 86 °F (at 3:54 PM)
Minimum temperature yesterday: 48 °F (at 4:54 AM)
Average temperature yesterday: 68 °F

High & Low Weather Summary for the Past Weeks

 TemperatureHumidityPressure
High96 °F (Aug 19, 3:54 PM)97% (Aug 11, 6:00 AM)30.24 "Hg (Aug 11, 6:00 AM)
Low46 °F (Aug 23, 3:54 AM)17% (Aug 19, 3:54 PM)29.78 "Hg (Aug 20, 6:54 PM)
Average68 °F63%30.04 "Hg
* Reported Aug 9 11:54 PM — Aug 24 11:54 PM, Olympia, Weather by CustomWeather, © 2016

Note: Actual official high and low records may vary slightly from our data, if they occured in-between our weather recording intervals... More about our weather records

Advertising

Olympia Weather History for the Previous 24 Hours

Scroll right to see more
 ConditionsComfort  
Time TempWeatherWind HumidityBarometerVisibility
11:54 PM
Wed, Aug 24
62 °FClear.No wind62%30.12 "Hg10 mi
10:54 PM63 °FClear.No wind63%30.12 "Hg10 mi
9:54 PM72 °FClear.5 mph41%30.12 "Hg10 mi
8:54 PM74 °FSunny.6 mph40%30.12 "Hg10 mi
7:54 PM78 °FSunny.6 mph33%30.11 "Hg10 mi
6:54 PM83 °FSunny.9 mph28%30.11 "Hg10 mi
5:54 PM85 °FSunny.13 mph24%30.12 "Hg10 mi
4:54 PM86 °FSunny.13 mph23%30.13 "Hg10 mi
3:54 PM86 °FSunny.14 mph22%30.14 "Hg10 mi
2:54 PM84 °FSunny.10 mph27%30.16 "Hg10 mi
1:54 PM81 °FSunny.9 mph35%30.18 "Hg10 mi
12:54 PM79 °FSunny.10 mph39%30.20 "Hg10 mi
11:54 AM76 °FSunny.10 mph43%30.22 "Hg10 mi
10:54 AM73 °FSunny.18 mph48%30.23 "Hg10 mi
9:54 AM70 °FSunny.10 mph55%30.24 "Hg10 mi
8:54 AM65 °FSunny.5 mph68%30.24 "Hg10 mi
7:54 AM57 °FSunny.No wind81%30.23 "Hg10 mi
6:54 AM49 °FClear.No wind90%30.22 "Hg10 mi
5:54 AM50 °FClear.No wind89%30.21 "Hg10 mi
4:54 AM48 °FClear.No wind93%30.19 "Hg10 mi
3:54 AM50 °FClear.No wind89%30.19 "Hg10 mi
2:54 AM51 °FClear.No wind86%30.18 "Hg10 mi
1:54 AM53 °FClear.No wind83%30.18 "Hg10 mi
Weather by CustomWeather, © 2016

See weather overviewHow to use our weather pages